Simultaneous Nadir Overpasses (SNOs) Predictions

Prediction of SNOs between METOP-A and TERRA Satellite Orbit:

Table of predicted SNOs for the next 14.0 days since TLE Epoch: 12/29/2018
Index Date (METOP-A) Time (METOP-A) Lat,Lon (METOP-A) SZA (METOP-A ) Date (TERRA) Time (TERRA) Lat,Lon (TERRA) SZA (TERRA ) Distance(km) Time Diff (sec)
1 12/31/2018 19:58:02 81.44, -69.46 107.30 12/31/2018 19:58:05 81.43, -69.58 107.28 2.07 3
2 12/31/2018 20:48:42 -81.44, 98.28 72.67 12/31/2018 20:47:31 -81.45, 98.32 72.69 1.06 71
3 01/03/2019 15:32:16 81.44, -3.12 107.00 01/03/2019 15:32:19 81.44, -3.05 107.01 1.17 3
4 01/03/2019 16:22:56 -81.44, 164.65 72.96 01/03/2019 16:21:46 -81.43, 164.49 73.01 2.66 70
5 01/06/2019 11:06:30 81.44, 63.62 106.69 01/06/2019 11:06:34 81.44, 63.49 106.68 2.25 4
6 01/06/2019 11:57:11 -81.44,-129.00 73.31 01/06/2019 11:56:01 -81.44,-128.95 73.34 0.86 70
7 01/09/2019 06:40:45 81.44, 129.94 106.29 01/09/2019 06:40:49 81.45, 130.02 106.30 1.49 4
8 01/09/2019 07:31:25 -81.44, -62.26 73.68 01/09/2019 07:30:16 -81.44, -62.39 73.72 2.20 69
9 01/12/2019 02:14:59 81.44,-163.74 105.82 01/12/2019 02:15:04 81.43,-163.84 105.81 1.72 5




NCC Satellite Simultaneous Nadir Overpasses (SNOs) Prediction Service
